Weather Roundup
Issued by NWS

Home | Current Version | Previous Version | Text Only | Print | Product List | Glossary On
Versions: 1 2 3 4 5 6 7 8 9 10 11 12 13 14 15 16 17 18 19 20 21 22 23 24 25 26 27 28 29 30 31 32 33 34 35 36 37 38 39 40 41 42 43 44 45 46 47 48 49 50
000
NZUS93 KARX 302110
HRRWXR

CURRENT HOURLY OBSERVATIONS ACROSS
MUCH OF THE UPPER MISSISSIPPI VALLEY
NATIONAL WEATHER SERVICE LA CROSSE WI
400 PM CDT WED JUL 30 2014


...SOUTHEAST MINNESOTA...


CITY           SKY/WX    TMP DP  RH WIND       PRES   REMARKS
ROCHESTER      SUNNY     79  58  48 NW6       30.08F
ROCHESTER/MAYO FAIR      77  52  41 NW5       30.07S
WINONA         SUNNY     79  57  47 NW6       30.05S
AUSTIN         MOSUNNY   77  55  47 NW10      30.07F
ALBERT LEA     SUNNY     79  55  44 W5        30.08F
DODGE CENTER   MOSUNNY   77  55  47 NW10      30.07F
PRESTON        MOSUNNY   75  64  67 NW6       30.08F
OWATONNA       SUNNY     79  54  41 NW7       30.07F
FARIBAULT      SUNNY     82  48  30 W7        30.07F
$$

...ELSEWHERE IN MINNESOTA...


CITY           SKY/WX    TMP DP  RH WIND       PRES   REMARKS
MINNEAPOLIS    MOSUNNY   81  54  39 NW13G21   30.04F
INTNL FALLS    PTSUNNY   76  56  49 N15       29.99F
DULUTH         MOSUNNY   78  56  46 NW14G23   29.98F
RED WING       SUNNY     81  55  41 NW7       30.02F
REDWOOD FALLS  SUNNY     78  54  43 N5        30.09F
MANKATO        MOSUNNY   77  54  44 NW13      30.08F
WORTHINGTON    SUNNY     75  52  43 NW5       30.15S
FAIRMONT       MOSUNNY   77  46  33 N8        30.11S
$$

...SOUTHWEST WISCONSIN...


CITY           SKY/WX    TMP DP  RH WIND       PRES   REMARKS
LA CROSSE      SUNNY     79  57  46 NW10      30.04F
PRAIRIE DU CHI SUNNY     79  52  38 N8        30.04F
BOSCOBEL       MOSUNNY   82  54  37 NW8       30.04F
LONE ROCK      SUNNY     82  52  35 N8        30.03F
PLATTEVILLE    MOSUNNY   78  53  41 NW13      30.06S
FORT MC COY    SUNNY     75  53  45 NW7       30.05F
CAMP DOUGLAS   MOSUNNY   73  57  56 W6        30.04F
VIROQUA        FAIR      74  55  51 NW7       30.07S
WIS DELLS      SUNNY     75  45  33 W6        30.04F
$$

...ELSEWHERE IN WISCONSIN...


CITY           SKY/WX    TMP DP  RH WIND       PRES   REMARKS
MILWAUKEE      MOSUNNY   68  56  65 E8        30.03F
MADISON        MOSUNNY   77  53  43 N8        30.04S
GREEN BAY      MOSUNNY   73  53  49 W7        29.99F
EAU CLAIRE     MOSUNNY   77  57  50 SW9       30.02F
BLACK RVR FLS  FAIR      76  48  37 NW3       30.04F
MEDFORD        SUNNY     70  54  55 W7        30.04F
WAUSAU         MOSUNNY   73  48  41 NW13G18   30.01F
WIS RAPIDS     SUNNY     76  49  38 W8        30.04F
MARSHFIELD     SUNNY     74  51  44 NW9       30.03F
RICE LAKE      MOSUNNY   76  57  51 W10       30.03F
$$

...NORTHEAST IOWA...


CITY           SKY/WX    TMP DP  RH WIND       PRES   REMARKS
WATERLOO       PTSUNNY   80  57  45 NW10      30.06F
DUBUQUE        MOSUNNY   77  57  50 N9        30.06F
DECORAH        PTSUNNY   75  59  57 NW8G14    30.06F
MASON CITY     PTSUNNY   80  56  43 N10       30.10F
CHARLES CITY   SUNNY     77  59  53 NW8       30.08F
OELWEIN        MOSUNNY   77  57  50 NW7       30.08S
$$

...ELSEWHERE IN IOWA...


CITY           SKY/WX    TMP DP  RH WIND       PRES   REMARKS
DES MOINES     MOSUNNY   82  54  37 NW8       30.08F
IOWA CITY      MOSUNNY   80  58  46 NW12      30.07F
FORT DODGE     MOSUNNY   79  57  47 N5        30.11F
MARSHALLTOWN   MOSUNNY   80  57  45 N6        30.08F
CEDAR RAPIDS   MOSUNNY   79  58  48 NW10      30.06F
$$

...NORTHERN ILLINOIS...


CITY           SKY/WX    TMP DP  RH WIND       PRES   REMARKS
CHICAGO-OHARE  PTSUNNY   72  57  59 NE10      30.02S
DUPAGE         MOSUNNY   78  57  48 W10       30.02S
CHICAGO-MIDWAY PTSUNNY   72  60  66 E13       30.02S
MOLINE         SUNNY     82  57  42 NW10      30.04F
ROCKFORD       LGT RAIN  75  56  51 NW10      30.04S
STERLING       MOSUNNY   81  61  50 NW10      30.04F
PEORIA         MOSUNNY   82  56  40 NW6       30.05F
$$

NOTE: "FAIR" INDICATES FEW OR NO CLOUDS BELOW 12,000 FEET WITH NO
SIGNIFICANT WEATHER AND/OR OBSTRUCTIONS TO VISIBILITY. WIND
SPEEDS ARE IN MILES-PER-HOUR.



USA.gov is the U.S. government's official web portal to all federal, state and local government web resources and services.